This demonstration page uses our WeatherBlox Daily Observations layout. Learn more.

Left ArrowRight Arrow

Hourly Observations for May 13, 2015

Temp ( °F °C ) Dew Point ( °F °C ) Humidity (%) Winds ( mph kmh ) Pressure ( in mb ) Visibility ( mi km ) Precip ( " mm )
12:01 am 00:01 Cloudy with Strong Thunderstorms 63 17.2 57 13.9 81 81 SE 9 15 30.00 1016 4 6 0.06 1.52
12:16 am 00:16 Cloudy with Nearby Thunderstorms 63 17 57 14 83 83 ESE 9 15 30.00 1016 10 16 0.00 0.00
12:26 am 00:26 Cloudy with Light Rain 63 17 57 14 83 83 ESE 8 13 29.97 1015 8 13 0.00 0.00
12:53 am 00:53 Cloudy with Light Rain 63 17.2 58 14.4 84 84 ESE 13 20 29.97 1015 10 16 0.12 3.05
1:43 am 01:43 Cloudy with Light Rain 62 16.7 58 14.4 86 86 ESE 13 20 29.94 1014 10 16 0.03 0.76
1:53 am 01:53 Cloudy with Light Rain 62 16.7 58 14.4 86 86 ESE 13 20 29.94 1014 10 16 0.04 1.02
2:34 am 02:34 Cloudy with Rain 63 17 57 14 83 83 ESE 15 24 29.94 1014 5 8 0.00 0.00
2:53 am 02:53 Cloudy with Light Rain 62 16.7 58 14.4 86 86 ESE 15 24 29.90 1013 10 16 0.08 2.03
3:53 am 03:53 Cloudy with Heavy Rain 62 16.7 59 15 90 90 S 7 11 29.87 1012 3 5 0.16 4.06
4:10 am 04:10 Cloudy with Heavy Rain 63 17 59 15 88 88 SE 12 19 29.88 1012 3 5 0.00 0.00
4:26 am 04:26 Cloudy with Light Rain 63 17 59 15 88 88 S 9 15 29.88 1012 10 16 0.00 0.00
4:49 am 04:49 Cloudy 63 17 59 15 88 88 SE 10 17 29.85 1011 10 16 0.15 3.81
4:53 am 04:53 Cloudy 62 16.7 59 15 90 90 SE 10 17 29.84 1010 10 16 0.15 3.81
5:13 am 05:13 Cloudy with Light Rain 63 17.2 59 15 87 87 SE 8 13 29.85 1011 10 16 0.00 0.03
5:35 am 05:35 Partly Cloudy 63 17.2 59 15 87 87 SSE 10 17 29.88 1012 10 16 0.00 0.03
5:53 am 05:53 Mostly Clear 62 16.7 59 15 90 90 S 12 19 29.87 1011 10 16 0.00 0.03
6:03 am 06:03 Partly Cloudy 63 17 59 15 88 88 SSE 12 19 29.88 1012 10 16 0.00 0.00
6:53 am 06:53 Mostly Clear 61 16.1 58 14.4 90 90 S 8 13 29.90 1013 10 16 0.00 0.00
7:03 am 07:03 Partly Cloudy 61 16 57 14 88 88 SW 8 13 29.94 1014 10 16 0.00 0.00
7:12 am 07:12 Mostly Cloudy 63 17 57 14 83 83 SW 9 15 29.91 1013 10 16 0.00 0.00
7:20 am 07:20 Mostly Cloudy 63 17 59 15 88 88 WSW 10 17 29.91 1013 10 16 0.00 0.00
7:53 am 07:53 Cloudy 61 16.1 58 14.4 90 90 W 9 15 29.91 1013 10 16 0.00 0.00
8:30 am 08:30 Partly Cloudy 61 16 57 14 88 88 SW 6 9 29.94 1014 10 16 0.00 0.00
8:53 am 08:53 Sunny 62 16.7 57 13.9 84 84 SW 7 11 29.92 1013 10 16 0.00 0.00
9:53 am 09:53 Sunny 66 18.9 57 13.9 73 73 WSW 13 20 29.91 1013 10 16 0.00 0.00
10:53 am 10:53 Sunny 71 21.7 54 12.2 55 55 W 16 26 29.92 1013 10 16 0.00 0.00
11:53 am 11:53 Sunny 74 23.3 50 10 43 43 W 25 41 29.91 1013 10 16 0.00 0.00
12:53 pm 12:53 Mostly Sunny 76 24.4 48 8.9 37 37 WSW 21 33 29.91 1013 10 16 0.00 0.00
1:53 pm 13:53 Mostly Sunny 77 25 45 7.2 32 32 W 22 35 29.89 1012 10 16 0.00 0.00
2:53 pm 14:53 Mostly Cloudy 78 25.6 46 7.8 32 32 W 22 35 29.88 1012 10 16 0.00 0.00
3:53 pm 15:53 Partly Cloudy 80 26.7 46 7.8 30 30 W 18 30 29.86 1011 10 16 0.00 0.00
4:53 pm 16:53 Mostly Sunny 80 26.7 45 7.2 29 29 W 20 31 29.84 1011 10 16 0.00 0.00
5:53 pm 17:53 Sunny 80 26.7 45 7.2 29 29 W 20 31 29.84 1011 10 16 0.00 0.00
6:53 pm 18:53 Sunny 79 26.1 44 6.7 29 29 W 10 17 29.84 1011 10 16 0.00 0.00
7:53 pm 19:53 Sunny 78 25.6 43 6.1 29 29 W 9 15 29.84 1011 10 16 0.00 0.00
8:53 pm 20:53 Clear 71 21.7 49 9.4 46 46 SW 8 13 29.86 1011 10 16 0.00 0.00
9:53 pm 21:53 Clear 69 20.6 50 10 51 51 SSE 5 7 29.86 1011 10 16 0.00 0.00
10:53 pm 22:53 Clear 65 18.3 51 10.6 61 61 SSE 9 15 29.89 1012 10 16 0.00 0.00
11:53 pm 23:53 Clear 62 16.7 52 11.1 70 70 SSE 8 13 29.91 1013 10 16 0.00 0.00

Powered by AerisWeather